Regional Weather Roundup
Issued by NWS Green Bay, WI

Home | Current Version | Previous Version | Text Only | Print | Product List | Glossary Off
Versions: 1 2 3 4 5 6 7 8 9 10 11 12 13 14 15 16 17 18 19 20 21 22 23 24 25 26 27 28 29 30 31 32 33 34 35 36 37 38 39 40 41 42 43 44 45 46 47 48 49 50

000
ASUS43 KGRB 290411
RWRGRB

NORTH-CENTRAL AND NORTHEAST WISCONSIN REGIONAL WEATHER ROUNDUP
NATIONAL WEATHER SERVICE GREEN BAY WI
1100 PM CDT FRI APR 28 2017

WIZ005-009-010>012-018-019-290500-
NORTH CENTRAL WISCONSIN

CITY           SKY/WX    TMP DP  RH WIND       PRES   REMARKS
IRONWOOD       CLOUDY    27  26  96 CALM      30.14R
MANITOWISH WTR PTCLDY    29  28  98 CALM      30.11R
ARBOR VITAE    PTCLDY    32  27  82 N6        30.10R
EAGLE RIVER    PTCLDY    31  24  77 N6        30.10R
LAND O LAKES   PTCLDY    31  27  86 CALM      30.12R
RHINELANDER    PTCLDY    35  28  75 N6        30.10R
PHILLIPS       CLOUDY    34  29  81 N9        30.10R
ANTIGO         CLOUDY    33  30  88 N3        30.08R
TOMAHAWK       PTCLDY    30  28  93 NW3       30.09R
MERRILL        CLOUDY    32  31  96 CALM      30.09R
$$

WIZ013-073-290500-
NORTHEAST WISCONSIN

CITY           SKY/WX    TMP DP  RH WIND       PRES   REMARKS
IRON MOUNTAIN  PTCLDY    37  25  61 N15       30.08R
MARINETTE      CLOUDY    42  29  59 N3        30.09R
OCONTO         CLOUDY    43  31  62 N9        30.08R
$$

WIZ017-030-035>037-045-290500-
CENTRAL WISCONSIN

CITY           SKY/WX    TMP DP  RH WIND       PRES   REMARKS
MEDFORD        CLEAR     34  31  87 N3        30.06F
WAUSAU         CLOUDY    39  29  67 NE3       30.07R
MOSINEE        CLOUDY    37  30  75 NE5       30.08R
MARSHFIELD     CLOUDY    41  29  62 NE6       30.05S
WISC RAPIDS    CLOUDY    44  32  62 N9        30.07R
STEVENS POINT  CLOUDY    40  29  65 N7        30.08R
WAUPACA        CLOUDY    47  33  57 N8        30.08R
SHAWANO        CLOUDY    45  32  60 N8        30.09R
CLINTONVILLE   CLOUDY    45  30  57 N8        30.08R
WAUTOMA        CLOUDY    45  35  68 N6        30.07R
$$

WIZ038-039-048-051-290500-
FOX VALLEY

CITY           SKY/WX    TMP DP  RH WIND       PRES   REMARKS
NWS GREEN BAY  CLOUDY    47  34  60 N16       30.07R
APPLETON       CLOUDY    46  32  57 N8        30.04R
OSHKOSH        CLOUDY    46  36  68 N9        30.05R
FOND DU LAC    CLOUDY    47  37  68 N6        30.05R
$$

WIZ022-050-052-290500-
EAST CENTRAL WISCONSIN

CITY           SKY/WX    TMP DP  RH WIND       PRES   REMARKS
EPHRAIM        CLOUDY    40  34  79 N9        30.07R
WASHINGTON ISL MOCLDY    38  33  81 N5        30.07R
STURGEON BAY   CLOUDY    43  34  70 N7        30.08R
MANITOWOC      CLOUDY    42  40  92 CALM      30.06R
SHEBOYGAN      LGT RAIN  43  40  89 CALM      30.04R FOG
$$

LMZ563-521-522-541>543-290500-
LAKESHORE

STATION/POSITION TIME  TEMP    WIND        PRES    VSBY  WAVE
                       AIR SEA DIR/SP/G                  HT/PER
                 (UTC) (F)     (DEG/KT/KT) (MB)    (MI)  (FT/S)
SHEBOYGAN LKSHOR 0400   41     340/  5/  5 1017.8R
KEWAUNEE LKSHORE 0348   44     360/  7/ 10 1017.5R
NORTHPORT PIER   0340   40     350/  7/  9 1018.6R
N MID LAKE BUOY  0350   38 37  310/  4/  6 1019.8R         1/ 4
CHAMBERS ISLAND  0340   41     320/  7/  9 1018.3R
MENOMINEE LKSHOR 0348   43     330/  8/ 11 1017.9R
$$




USA.gov is the U.S. government's official web portal to all federal, state and local government web resources and services.